Estación meteorológica de Els Cortals - St. Hilari Sacalm (La Selva, Guilleries)

Consulta los datos en tiempo real de la estación meteorológica de Els Cortals - St. Hilari Sacalm





Hora UTC 21:55
Temperatura 8.2 ºC
Humedad 75.0 %
Presión 1009.7 hPa
Pluja 0.0 mm
Velocidad viento 0.0 km/h
Dirección viento SE

Datos diarios 2026-05-08



Hora UTC (invierno +1h; verano +2h)
Temperatura (ºC) Humedad (%) Presión (hPa) Velocidad viento (km/h) Precipitación (mm)
Hora UTC Aire Humedad Presión Vel. Dir. Vel. Max Dir. Intent. máx 5 min.
00:05 8.4 80.0 1007.6 3.2 WSW 3.2 0.0
00:10 8.4 80.0 1007.5 4.8 WSW 9.7 0.0
00:15 8.4 80.0 1007.4 4.8 WSW 9.7 0.0
00:20 8.4 81.0 1007.4 4.8 WSW 9.7 0.0
00:25 8.4 81.0 1007.4 8.0 W 9.7 0.0
00:30 8.6 81.0 1007.3 6.4 W 9.7 0.0
00:35 8.7 81.0 1007.3 8.0 WNW 11.3 0.0
00:40 8.8 80.0 1007.3 3.2 W 9.7 0.0
00:45 8.9 80.0 1007.3 6.4 W 9.7 0.0
00:50 8.9 79.0 1007.3 6.4 WSW 9.7 0.0
00:55 9.1 79.0 1007.4 6.4 WSW 9.7 0.0
01:00 9.1 78.0 1007.3 8.0 WSW 8.0 0.0
01:05 9.2 78.0 1007.2 4.8 W 9.7 0.0
01:10 9.2 77.0 1007.2 6.4 W 8.0 0.0
01:15 9.2 77.0 1007.1 6.4 W 8.0 0.0
01:20 9.3 77.0 1007.1 3.2 W 9.7 0.0
01:25 9.2 76.0 1006.9 8.0 W 9.7 0.0
01:30 9.2 76.0 1006.9 8.0 W 9.7 0.0
01:35 9.2 76.0 1007.0 8.0 W 9.7 0.0
01:40 9.1 76.0 1007.0 3.2 W 9.7 0.0
01:45 9.1 77.0 1007.0 3.2 W 11.3 0.0
01:50 9.0 77.0 1007.0 0.0 W 11.3 0.0
01:55 8.9 77.0 1006.9 4.8 W 4.8 0.0
02:00 8.9 77.0 1007.0 9.7 W 9.7 0.0
02:05 8.9 77.0 1006.9 9.7 W 12.9 0.0
02:10 8.9 77.0 1006.8 9.7 W 11.3 0.0
02:15 8.9 77.0 1006.7 6.4 W 11.3 0.0
02:20 8.9 77.0 1006.7 6.4 W 9.7 0.0
02:25 8.9 77.0 1006.7 8.0 W 11.3 0.0
02:30 8.9 77.0 1006.7 9.7 W 11.3 0.0
02:35 9.0 78.0 1006.6 9.7 W 11.3 0.0
02:40 9.1 78.0 1006.5 6.4 W 14.5 0.0
02:45 9.1 78.0 1006.5 6.4 WSW 14.5 0.0
02:50 9.1 79.0 1006.5 8.0 WSW 12.9 0.0
02:55 8.9 81.0 1006.5 9.7 WSW 12.9 0.0
03:00 8.8 82.0 1006.4 8.0 WSW 11.3 0.0
03:05 8.8 83.0 1006.5 11.3 WSW 16.1 0.0
03:10 8.8 83.0 1006.4 8.0 WSW 16.1 0.0
03:15 8.7 82.0 1006.4 8.0 W 12.9 0.0
03:20 8.7 81.0 1006.4 8.0 W 11.3 0.0
03:25 8.7 80.0 1006.3 8.0 W 12.9 0.0
03:30 8.7 79.0 1006.1 9.7 W 11.3 0.0
03:35 8.7 78.0 1006.1 6.4 W 12.9 0.0
03:40 8.7 78.0 1006.0 8.0 W 12.9 0.0
03:45 8.8 77.0 1006.1 8.0 W 12.9 0.0
03:50 8.8 77.0 1006.2 6.4 W 12.9 0.0
03:55 8.8 77.0 1006.1 8.0 W 12.9 0.0
04:00 8.8 76.0 1006.2 4.8 W 9.7 0.0
04:05 8.8 77.0 1006.3 6.4 W 9.7 0.0
04:10 8.7 77.0 1006.3 6.4 W 9.7 0.0
04:15 8.8 78.0 1006.3 3.2 W 12.9 0.0
04:20 8.8 78.0 1006.3 3.2 WNW 12.9 0.0
04:25 8.7 79.0 1006.3 6.4 W 11.3 0.0
04:30 8.7 80.0 1006.2 3.2 W 8.0 0.0
04:35 8.5 81.0 1006.2 6.4 W 8.0 0.0
04:40 8.4 81.0 1006.2 6.4 W 9.7 0.0
04:45 8.4 81.0 1006.3 8.0 W 9.7 0.0
04:50 8.2 81.0 1006.4 4.8 W 9.7 0.0
04:55 8.0 81.0 1006.4 3.2 W 8.0 0.0
05:00 8.0 82.0 1006.4 1.6 W 8.0 0.0
05:05 8.0 83.0 1006.5 3.2 W 8.0 0.0
05:10 8.1 83.0 1006.4 3.2 W 8.0 0.0
05:15 8.1 82.0 1006.5 0.0 W 6.4 0.0
05:20 8.2 83.0 1006.7 0.0 W 0.0 0.0
05:25 8.6 81.0 1006.7 6.4 W 8.0 0.0
05:30 9.1 79.0 1006.7 6.4 W 8.0 0.0
05:35 9.4 79.0 1006.7 6.4 W 8.0 0.0
05:40 9.8 79.0 1006.8 3.2 WNW 9.7 0.0
05:45 10.2 80.0 1006.9 1.6 WNW 9.7 0.0
05:50 10.5 80.0 1007.0 0.0 WNW 3.2 0.0
05:55 10.8 79.0 1007.2 0.0 WNW 3.2 0.0
06:00 11.1 77.0 1007.5 0.0 WNW 0.0 0.0
06:05 11.2 77.0 1007.4 0.0 WNW 0.0 0.0
06:10 11.3 77.0 1007.6 0.0 WNW 0.0 0.0
06:15 11.6 76.0 1007.7 0.0 WNW 0.0 0.0
06:20 11.8 75.0 1007.5 0.0 WNW 0.0 0.0
06:25 11.8 73.0 1007.6 0.0 WNW 0.0 0.0
06:30 11.7 71.0 1007.6 0.0 SSE 0.0 0.0
06:35 11.8 72.0 1007.8 0.0 WSW 0.0 0.0
06:40 12.1 72.0 1007.8 0.0 WSW 0.0 0.0
06:45 12.3 69.0 1007.7 0.0 NE 0.0 0.0
06:50 12.7 68.0 1007.6 0.0 NE 0.0 0.0
06:55 13.1 68.0 1007.8 3.2 WNW 3.2 0.0
07:00 13.2 58.0 1007.7 1.6 NW 3.2 0.0
07:05 13.4 63.0 1007.7 0.0 W 3.2 0.0
07:10 13.7 66.0 1007.7 4.8 E 8.0 0.0
07:15 13.7 64.0 1007.7 0.0 E 8.0 0.0
07:20 13.6 64.0 1007.9 3.2 E 8.0 0.0
07:25 13.6 64.0 1008.0 6.4 E 9.7 0.0
07:30 13.4 65.0 1008.0 6.4 ENE 9.7 0.0
07:35 13.4 65.0 1007.9 1.6 E 8.0 0.0
07:40 13.5 65.0 1007.9 1.6 ESE 8.0 0.0
07:45 13.7 66.0 1008.1 0.0 SE 8.0 0.0
07:50 13.5 63.0 1008.2 3.2 E 11.3 0.0
07:55 13.4 62.0 1008.2 6.4 E 12.9 0.0
08:00 13.4 65.0 1008.2 8.0 E 9.7 0.0
08:05 13.3 64.0 1008.3 8.0 E 12.9 0.0
08:10 13.1 64.0 1008.3 8.0 E 12.9 0.0
08:15 13.0 66.0 1008.4 3.2 NE 11.3 0.0
08:20 13.0 68.0 1008.4 9.7 NE 12.9 0.0
08:25 13.1 64.0 1008.4 8.0 ENE 12.9 0.0
08:30 13.1 61.0 1008.4 3.2 NE 11.3 0.0
08:35 13.2 65.0 1008.3 4.8 NE 11.3 0.0
08:40 13.2 68.0 1008.5 9.7 ESE 9.7 0.0
08:45 13.2 69.0 1008.6 1.6 NE 11.3 0.0
08:50 13.3 71.0 1008.7 6.4 E 11.3 0.0
08:55 13.4 65.0 1008.7 1.6 SE 11.3 0.0
09:00 13.6 66.0 1008.6 8.0 ESE 11.3 0.0
09:05 13.8 67.0 1008.9 8.0 E 12.9 0.0
09:10 13.7 65.0 1008.8 9.7 E 12.9 0.0
09:15 13.6 68.0 1008.9 9.7 SSW 11.3 0.0
09:20 13.5 69.0 1009.0 3.2 SE 12.9 0.0
09:25 13.3 70.0 1009.0 3.2 SE 14.5 0.0
09:30 13.0 72.0 1009.2 3.2 ESE 14.5 0.0
09:35 12.9 74.0 1009.1 8.0 E 11.3 0.0
09:40 12.8 73.0 1009.2 3.2 E 12.9 0.0
09:45 12.8 73.0 1009.1 3.2 NE 11.3 0.0
09:50 12.8 73.0 1009.2 3.2 E 12.9 0.0
09:55 12.7 73.0 1009.1 4.8 ENE 12.9 0.0
10:00 12.6 70.0 1009.2 6.4 NE 14.5 0.0
10:05 12.5 72.0 1009.2 1.6 ESE 14.5 0.0
10:10 12.6 74.0 1009.2 9.7 NNE 14.5 0.0
10:15 12.8 74.0 1009.2 8.0 SE 12.9 0.0
10:20 12.8 76.0 1009.1 3.2 SSE 12.9 0.0
10:25 12.7 77.0 1009.1 12.9 ENE 19.3 0.0
10:30 12.6 79.0 1009.0 3.2 E 19.3 0.0
10:35 12.8 79.0 1009.0 8.0 E 12.9 0.0
10:40 13.0 78.0 1009.0 8.0 E 14.5 0.0
10:45 13.2 77.0 1008.9 6.4 E 14.5 0.0
10:50 13.2 75.0 1008.9 11.3 S 16.1 0.0
10:55 13.3 78.0 1008.8 9.7 E 16.1 0.0
11:00 13.3 78.0 1008.6 1.6 SSE 17.7 0.0
11:05 13.6 79.0 1008.8 9.7 E 17.7 0.0
11:10 13.6 77.0 1008.8 0.0 ESE 14.5 0.0
11:15 13.6 77.0 1008.6 8.0 ENE 14.5 0.0
11:20 13.6 77.0 1008.5 6.4 ENE 14.5 0.0
11:25 13.4 79.0 1008.6 8.0 E 16.1 0.0
11:30 13.2 79.0 1008.7 8.0 E 16.1 0.0
11:35 12.9 80.0 1008.5 6.4 E 14.5 0.0
11:40 13.0 81.0 1008.6 8.0 SSE 14.5 0.0
11:45 13.2 81.0 1008.6 6.4 E 9.7 0.0
11:50 13.2 81.0 1008.5 9.7 E 12.9 0.0
11:55 13.2 81.0 1008.5 6.4 E 12.9 0.0
12:00 13.3 80.0 1008.6 8.0 E 16.1 0.0
12:05 13.3 79.0 1008.6 9.7 ENE 16.1 0.0
12:10 13.2 77.0 1008.6 3.2 SE 16.1 0.0
12:15 13.1 76.0 1008.6 8.0 E 12.9 0.0
12:20 13.1 79.0 1008.7 6.4 ESE 14.5 0.0
12:25 13.2 79.0 1008.7 11.3 E 12.9 0.0
12:30 13.2 80.0 1008.7 9.7 ESE 11.3 0.0
12:35 13.2 80.0 1008.7 8.0 ESE 16.1 0.0
12:40 13.2 80.0 1008.6 6.4 SE 16.1 0.0
12:45 13.3 81.0 1008.6 1.6 E 16.1 0.0
12:50 13.3 79.0 1008.6 3.2 E 16.1 0.0
12:55 13.5 80.0 1008.7 6.4 E 16.1 0.0
13:00 14.2 81.0 1008.5 6.4 SE 14.5 0.0
13:05 14.6 78.0 1008.6 3.2 SE 14.5 0.0
13:10 15.0 78.0 1008.6 8.0 NE 14.5 0.0
13:15 14.8 77.0 1008.5 12.9 E 17.7 0.0
13:20 14.6 77.0 1008.6 3.2 S 17.7 0.0
13:25 14.1 78.0 1008.8 0.0 E 16.1 0.0
13:30 13.7 79.0 1008.7 6.4 SE 17.7 0.0
13:35 13.2 79.0 1008.8 6.4 ESE 17.7 0.0
13:40 13.0 81.0 1008.7 3.2 SSE 16.1 0.0
13:45 13.0 81.0 1008.8 1.6 E 11.3 0.0
13:50 13.1 81.0 1008.7 3.2 E 12.9 0.0
13:55 13.2 81.0 1008.8 3.2 E 12.9 0.0
14:00 13.2 80.0 1008.8 3.2 E 12.9 0.0
14:05 13.3 78.0 1008.7 8.0 E 12.9 0.0
14:10 13.3 78.0 1008.7 6.4 SSE 14.5 0.0
14:15 13.3 78.0 1008.7 1.6 E 12.9 0.0
14:20 13.5 79.0 1008.6 8.0 E 12.9 0.0
14:25 13.5 78.0 1008.7 1.6 E 11.3 0.0
14:30 13.4 79.0 1008.5 11.3 ENE 12.9 0.0
14:35 13.5 79.0 1008.5 6.4 E 12.9 0.0
14:40 13.6 79.0 1008.2 6.4 NE 12.9 0.0
14:45 13.6 79.0 1008.0 4.8 E 16.1 0.0
14:50 13.6 80.0 1008.1 8.0 NE 16.1 0.0
14:55 13.7 80.0 1008.0 3.2 E 14.5 0.0
15:00 13.8 79.0 1007.9 3.2 NE 11.3 0.0
15:05 13.8 79.0 1007.9 9.7 E 14.5 0.0
15:10 13.7 80.0 1007.9 6.4 E 14.5 0.0
15:15 13.6 80.0 1007.9 6.4 ENE 12.9 0.0
15:20 13.7 81.0 1007.9 6.4 E 12.9 0.0
15:25 14.1 80.0 1007.9 8.0 ENE 14.5 0.0
15:30 14.3 78.0 1008.0 1.6 SE 14.5 0.0
15:35 14.0 77.0 1008.1 1.6 ESE 11.3 0.0
15:40 13.7 78.0 1008.0 6.4 ENE 11.3 0.0
15:45 13.4 80.0 1007.9 6.4 SSE 9.7 0.0
15:50 13.4 80.0 1008.1 6.4 ESE 14.5 0.0
15:55 13.2 81.0 1008.0 8.0 ESE 14.5 0.0
16:00 13.1 82.0 1008.0 6.4 SE 14.5 0.0
16:05 13.0 82.0 1008.0 6.4 ESE 14.5 0.0
16:10 13.2 82.0 1008.2 3.2 ESE 14.5 0.0
16:15 13.4 82.0 1008.1 6.4 ESE 12.9 0.0
16:20 13.3 83.0 1008.0 9.7 E 16.1 0.0
16:25 13.2 83.0 1008.0 8.0 SE 16.1 0.0
16:30 13.2 83.0 1008.0 6.4 E 12.9 0.0
16:35 13.2 83.0 1008.1 1.6 ESE 12.9 0.0
16:40 13.2 83.0 1007.9 11.3 ENE 12.9 0.0
16:45 12.9 83.0 1007.8 6.4 NE 14.5 0.0
16:50 12.7 83.0 1007.9 8.0 E 14.5 0.0
16:55 12.5 83.0 1007.9 6.4 E 9.7 0.0
17:00 12.3 83.0 1007.9 3.2 E 9.7 0.0
17:05 12.3 83.0 1007.9 6.4 ENE 11.3 0.0
17:10 12.4 83.0 1007.9 6.4 ENE 11.3 0.0
17:15 12.4 83.0 1007.8 6.4 ESE 12.9 0.0
17:20 12.2 83.0 1007.8 4.8 ENE 12.9 0.0
17:25 11.9 82.0 1007.7 6.4 ESE 12.9 0.0
17:30 11.9 82.0 1007.8 3.2 ENE 12.9 0.0
17:35 11.9 82.0 1008.2 1.6 E 14.5 0.0
17:40 11.7 82.0 1008.2 4.8 E 14.5 0.0
17:45 11.6 81.0 1007.9 9.7 E 11.3 0.0
17:50 11.4 81.0 1008.2 9.7 E 9.7 0.0
17:55 11.2 81.0 1008.1 1.6 E 9.7 0.0
18:00 11.2 80.0 1008.3 3.2 E 8.0 0.0
18:05 11.1 79.0 1008.4 8.0 E 8.0 0.0
18:10 11.1 78.0 1008.4 0.0 ESE 8.0 0.0
18:15 11.0 78.0 1008.6 1.6 E 8.0 0.0
18:20 10.9 77.0 1008.6 0.0 E 8.0 0.0
18:25 10.8 77.0 1008.6 0.0 E 1.6 0.0
18:30 10.7 76.0 1008.8 0.0 E 0.0 0.0
18:35 10.7 76.0 1008.6 0.0 E 0.0 0.0
18:40 10.6 76.0 1008.7 0.0 E 0.0 0.0
18:45 10.5 75.0 1008.8 0.0 E 0.0 0.0
18:50 10.4 75.0 1008.8 0.0 E 0.0 0.0
18:55 10.4 75.0 1009.0 0.0 E 0.0 0.0
19:00 10.3 75.0 1008.7 0.0 E 0.0 0.0
19:05 10.2 74.0 1008.9 0.0 E 0.0 0.0
19:10 10.1 75.0 1008.9 0.0 E 0.0 0.0
19:15 9.9 75.0 1008.8 0.0 E 0.0 0.0
19:20 9.8 75.0 1008.8 0.0 E 0.0 0.0
19:25 9.7 75.0 1009.0 0.0 E 0.0 0.0
19:30 9.6 74.0 1009.1 0.0 E 0.0 0.0
19:35 9.6 74.0 1009.1 0.0 E 0.0 0.0
19:40 9.4 74.0 1009.2 0.0 E 0.0 0.0
19:45 9.3 74.0 1009.2 0.0 E 0.0 0.0
19:50 9.2 74.0 1009.2 0.0 E 0.0 0.0
19:55 9.1 74.0 1009.2 0.0 E 0.0 0.0
20:00 9.2 73.0 1009.2 0.0 E 0.0 0.0
20:05 9.3 72.0 1009.2 0.0 E 0.0 0.0
20:10 9.3 72.0 1009.2 0.0 ESE 0.0 0.0
20:15 9.3 72.0 1009.4 0.0 ESE 0.0 0.0
20:20 9.1 73.0 1009.4 0.0 ESE 0.0 0.0
20:25 8.9 73.0 1009.3 0.0 ESE 0.0 0.0
20:30 8.8 74.0 1009.6 0.0 ESE 0.0 0.0
20:35 8.7 74.0 1009.5 0.0 ESE 0.0 0.0
20:40 8.7 74.0 1009.4 0.0 ESE 0.0 0.0
20:45 8.7 74.0 1009.5 0.0 SE 0.0 0.0
20:50 8.7 74.0 1009.5 0.0 SE 0.0 0.0
20:55 8.7 74.0 1009.7 0.0 SE 0.0 0.0
21:00 8.7 74.0 1009.7 0.0 SE 0.0 0.0
21:05 8.6 74.0 1009.6 0.0 SE 0.0 0.0
21:10 8.7 74.0 1009.6 0.0 SE 0.0 0.0
21:15 8.6 74.0 1009.7 0.0 SE 0.0 0.0
21:20 8.6 74.0 1009.8 0.0 SE 0.0 0.0
21:25 8.6 74.0 1009.7 0.0 SE 0.0 0.0
21:30 8.6 74.0 1009.7 0.0 SE 0.0 0.0
21:35 8.6 74.0 1009.7 0.0 SE 0.0 0.0
21:40 8.4 75.0 1009.7 0.0 SE 0.0 0.0
21:45 8.2 75.0 1009.8 0.0 SE 0.0 0.0
21:50 8.3 75.0 1009.8 0.0 SE 0.0 0.0
21:55 8.2 75.0 1009.7 0.0 SE 0.0 0.0
Máxima 15.0 83.0 1009.8 12.9 E 19.3 0.0
Mínima 8.0 58.0 1006.0
Total 0.0